This is the latest recevied weather packets stored in our database for station/object WD4ITN. If no packets are shown the sender has not sent any weather packets the latest 10 day(s).
| Time | Temp. | Humidity | Pressure | Rain* | Wind** | Luminosity | Snow |
|---|---|---|---|---|---|---|---|
| 1787504916 | 22.22° C | 62% | 1015.3 hPa | 0.51 mm | - | - | - |
| 1787504604 | 21.67° C | 62% | 1015.4 hPa | 0.51 mm | - | - | - |
| 1787504303 | 21.67° C | 62% | 1015.4 hPa | 0.51 mm | - | - | - |
| 1787504007 | 21.67° C | 64% | 1015.3 hPa | 0.51 mm | - | - | - |
| 1787503705 | 21.67° C | 62% | 1015.3 hPa | 0.51 mm | - | - | - |
| 1787503397 | 21.67° C | 62% | 1015.2 hPa | 0.51 mm | - | - | - |
| 1787503098 | 21.11° C | 65% | 1015.3 hPa | 0.51 mm | - | - | - |
| 1787502795 | 21.11° C | 63% | 1015.5 hPa | 0.51 mm | - | - | - |
| 1787502494 | 21.11° C | 65% | 1015.4 hPa | 0.51 mm | - | - | - |
| 1787502216 | 21.11° C | 64% | 1015.4 hPa | 0.51 mm | - | - | - |
| 1787501905 | 21.11° C | 64% | 1015.4 hPa | 0.51 mm | - | - | - |
| 1787501604 | 21.11° C | 63% | 1015.4 hPa | 0.51 mm | - | - | - |
| 1787501299 | 21.11° C | 69% | 1015.5 hPa | 0.51 mm | - | - | - |
| 1787500995 | 20.56° C | 61% | 1015.6 hPa | 0.51 mm | - | - | - |
| 1787500711 | 20.56° C | 66% | 1015.5 hPa | 0.51 mm | - | - | - |
| 1787500402 | 20.56° C | 65% | 1015.5 hPa | 0.51 mm | - | - | - |
| 1787500102 | 21.11° C | 67% | 1015.6 hPa | 0.51 mm | - | - | - |
| 1787499800 | 21.11° C | 68% | 1015.5 hPa | 0.51 mm | - | - | - |
| 1787499496 | 20.56° C | 67% | 1015.6 hPa | 0.51 mm | - | - | - |
| 1787499212 | 20.56° C | 63% | 1015.5 hPa | 0.51 mm | - | - | - |
| 1787498913 | 20.56° C | 67% | 1015.4 hPa | 0.51 mm | - | - | - |
| 1787498607 | 20.56° C | 69% | 1015.5 hPa | 0.51 mm | - | - | - |
| 1787498305 | 20.56° C | 68% | 1015.5 hPa | 0.51 mm | - | - | - |
| 1787498003 | 20.56° C | 69% | 1015.4 hPa | 0.51 mm | - | - | - |
| 1787497709 | 20.56° C | 68% | 1015.4 hPa | 0.51 mm | - | - | - |
* Rain since midnight (hover to see other rain measurements)
** Current wind speed in m/s (hover to see current wind gust speed)